User: anonymous   Login
Location: Treviso
(45.6669°N, 12.2430°E)
Time: 14:01:53
(UTC+01:00)
Language:

ISS - Orbit

View from above orbital plane
View from above orbital plane
View from above satellite
View from above satellite

Ground track
Ground track

The orbit data is extracted from the following two-line orbital elements,

1 25544U 98067A   21338.19464374  .00020386  00000-0  37799-3 0  9992
2 25544  51.6430 222.1110 0004209 274.4073 196.2591 15.48937579314944
Epoch (UTC): 04 December 2021 04:40:17
Eccentricity: 0.0004209
inclination: 51.6430°
perigee height: 417 km
apogee height: 423 km
right ascension of ascending node: 222.1110°
argument of perigee: 274.4073°
revolutions per day: 15.48937579
mean anomaly at epoch: 196.2591°
orbit number at epoch: 31494

The dashed part of the orbit path shows where the satellite is in the earth's shadow,  

DLR